2018-104L (43859 NORAD) Tracking and Keplerian Element Data

This shows tracking and keplerian element data for the satellite.

Feedback or suggestion? Click here.




ElementValue
Catalog43859
Name2018-104L
Epoch Orbit449
Epoch Day14.912702
Epoch Year2019
RAAN158.7379
Inclination85.0313
Eccentricity0.0013374
Argument of Perigee170.3052
Mean Anonmoly189.8444
Mean Motion15.20739256
Decay Rate1.032E-05
L11 43859U 18104L 19014.91270200 .00001032 00000-0 44992-4 0 9997
L22 43859 85.0313 158.7379 0013374 170.3052 189.8444 15.20739256 4492

Live tracking and technical data element details for 2018-104L (NORAD 43859). 2018-104L can be tracked NOW for your location showing map with azimuth and elevation plus other details from your city location.

Track the satellite on the map from your city or location and see movement details for azimuth, elevation, latitude, longitude, range, height, and movement on the map or in text.







IsCatalogInMostPopularTable: catalog: 43859, numindb: 74
Update: records affected: 1



GetName: 43859 2018-104L

Hit Count: updated at: Thu, 23 May 2019 15:03:38 GMT